Location: Lanoux
(43.1180°N, 1.4255°E)
Time: 23:32:10
(UTC+00:00)

Cosmos 1805 - Pass Details

Date: 13 December 2025
Orbit: 429 x 431 km, 82.5° (Epoch: 19 January)

Event Time Altitude Azimuth Distance (km) Brightness Sun altitude
Rises 17:20:25 0° 6° (N) 2,409 6.3 -10.8°
Reaches altitude 10° 17:22:53 10° 25° (NNE) 1,537 5.2 -11.2°
Maximum altitude 17:25:23 19° 74° (ENE) 1,082 4.2 -11.6°
Drops below altitude 10° 17:27:52 10° 122° (ESE) 1,529 5.2 -12.0°
Sets 17:30:18 0° 141° (SE) 2,392 6.4 -12.4°
